Theta_e
319 318 320 319 318 319 320 319 319 320 320 319 313 310 309 308 309 310 309 311 312 313 313 311 310 311 309 310 313 312 314 310 311 314 316 315 317 320 321 318 321 320 320 320 325 332 331 320 329 337 336 337 336 334
319 320 321 322 321 320 319 319 319 319 321 318 313 311 311 308 308 309 309 309 310 312 313 309 311 311 311 312 311 312 314 311 308 312 313 313 315 317 319 323 319 324 325 328 328 327 318 316 318 317 323 325 327 333
319 320 321 322 322 322 321 320 319 318 320 320 315 313 313 310 308 308 309 309 310 310 312 311 313 309 310 310 309 313 314 312 312 311 314 314 315 315 321 320 320 321 321 323 326 318 317 316 314 315 316 317 321 324
319 320 321 322 321 322 321 321 319 318 319 320 318 315 314 312 309 308 308 309 309 309 314 313 310 312 311 309 308 309 311 311 312 314 315 315 315 313 318 318 319 319 321 323 321 319 316 314 313 313 314 314 316 316
316 321 321 321 321 322 322 321 320 321 319 319 319 316 315 312 309 308 308 309 309 310 313 313 310 310 310 309 309 308 312 313 314 315 316 317 315 315 315 316 318 316 319 324 324 318 318 315 311 311 313 314 316 317
314 321 321 321 321 322 322 322 321 321 320 319 320 317 314 310 308 308 313 309 309 308 313 314 310 313 310 310 310 310 310 310 312 313 313 314 312 313 317 319 314 311 311 313 318 313 313 312 309 308 311 311 313 316
315 320 322 322 322 323 322 322 322 321 320 320 320 318 314 309 308 309 313 309 310 309 313 316 317 312 310 310 310 311 308 312 312 312 314 312 313 314 315 317 313 309 308 308 308 311 311 308 310 307 309 309 310 311
316 320 322 322 322 323 322 322 322 320 320 320 320 317 312 309 309 310 310 310 309 309 311 317 318 315 310 313 313 308 313 312 313 314 313 314 312 312 316 313 312 309 308 308 307 306 306 306 306 306 307 307 309 310
318 321 321 321 322 323 323 322 322 321 320 320 319 314 310 309 310 311 310 311 309 309 314 315 319 321 310 311 310 310 310 316 311 317 315 313 314 318 314 314 312 311 310 309 307 306 305 306 306 306 306 307 308 308
320 320 320 322 322 322 323 322 321 320 320 319 315 312 316 312 312 311 309 311 310 310 311 315 314 319 313 311 311 312 310 314 317 314 312 316 316 313 312 313 312 311 310 308 308 307 306 306 306 306 306 306 306 306
320 320 322 322 322 322 322 321 320 319 319 315 315 317 313 313 312 312 315 316 314 315 312 313 314 318 311 315 314 310 314 313 318 314 316 316 321 317 314 312 311 311 309 308 306 306 305 305 306 306 306 305 305 305
321 322 322 322 322 322 321 321 319 319 318 316 314 312 312 314 316 317 318 318 318 322 317 321 319 316 313 310 314 311 315 315 318 313 316 318 317 314 313 312 311 309 308 307 307 307 305 305 305 305 305 305 304 304
322 322 322 322 322 321 321 320 319 317 315 312 312 314 316 318 318 320 323 325 323 319 319 319 320 315 312 312 314 313 316 317 313 317 317 316 314 313 314 312 310 308 308 307 308 307 306 305 304 305 305 305 304 304
322 321 322 322 321 321 320 320 318 316 313 315 318 316 320 321 320 321 323 324 321 320 320 322 322 317 315 316 316 319 317 316 320 319 317 316 316 315 313 312 310 310 309 308 309 308 308 308 307 306 305 305 305 305
322 322 320 319 319 319 318 319 317 314 313 317 317 320 322 321 320 321 322 323 322 322 321 323 321 318 321 321 320 319 320 321 320 318 316 315 316 315 314 313 312 311 311 310 309 309 309 309 308 308 307 305 304 304
320 319 318 318 319 319 318 315 312 313 312 316 317 321 321 323 322 322 324 324 323 322 319 320 322 323 322 323 322 322 319 318 317 316 314 313 314 315 314 313 313 312 311 311 310 310 310 310 309 309 308 307 306 305
318 317 317 319 320 318 314 314 312 313 316 318 319 317 318 319 321 320 320 321 322 324 325 321 323 322 321 322 321 319 319 318 316 315 312 313 316 315 314 313 313 313 312 312 312 311 311 311 310 309 309 308 308 307
316 316 318 318 318 312 313 313 314 315 318 318 319 319 318 318 318 319 319 321 324 324 322 323 324 325 322 322 321 318 317 315 316 314 313 313 314 312 312 313 312 312 312 312 311 311 310 309 309 309 309 309 308 307
316 316 317 315 314 314 314 313 313 319 319 317 317 318 317 318 318 318 319 321 323 323 322 324 325 327 327 325 324 324 321 317 316 314 313 311 311 310 310 309 310 310 310 309 308 308 308 308 308 308 308 307 308 308
315 315 314 313 314 315 318 317 312 316 320 320 318 320 321 322 320 319 319 320 323 324 325 324 326 327 325 324 321 320 318 315 314 314 314 312 310 310 310 309 309 309 309 308 308 306 308 308 308 307 307 307 308 308
311 312 311 312 313 314 315 318 318 318 319 321 320 320 322 320 322 322 324 323 325 326 328 328 325 325 321 319 317 316 317 314 315 315 315 314 311 310 311 310 310 309 309 310 311 311 308 309 310 309 308 308 308 307
310 311 311 311 312 313 314 314 318 318 319 320 321 318 323 325 325 325 323 325 327 328 326 327 323 323 324 322 319 315 314 313 312 311 310 311 314 313 312 312 311 311 311 311 312 311 311 311 308 306 306 305 303 304
312 312 312 312 315 313 314 316 320 320 323 323 323 325 326 327 325 323 327 326 327 324 323 322 321 319 320 314 312 312 312 313 314 314 313 313 313 313 313 313 312 312 313 312 311 311 311 309 304 305 304 302 303 304
313 314 316 317 316 317 318 321 321 322 321 323 325 326 326 328 324 325 326 324 324 320 322 322 319 315 314 314 314 314 313 313 314 313 313 314 315 315 313 313 313 313 313 313 312 311 310 307 304 304 304 303 303 303
314 316 315 313 319 321 322 323 322 322 324 324 325 326 326 327 330 329 330 327 324 323 322 322 321 318 318 316 314 313 310 312 313 314 313 312 313 311 311 311 311 310 309 310 311 310 310 306 304 305 304 304 304 304
317 318 317 321 322 322 323 325 324 324 325 326 327 328 328 328 328 329 328 324 325 323 322 323 324 320 317 314 315 314 313 311 311 312 313 311 312 312 313 315 314 313 306 307 308 308 308 306 305 305 305 304 303 302
318 320 319 316 318 321 322 321 322 324 326 325 327 327 328 328 329 327 323 321 324 323 322 321 321 320 320 317 314 312 311 311 311 312 311 313 312 313 313 314 314 309 304 304 305 305 305 305 305 304 304 304 304 303
318 318 319 320 320 320 323 324 324 325 325 325 326 326 326 328 327 326 325 323 322 322 322 322 320 319 318 316 315 315 315 313 312 311 311 307 306 306 306 307 305 304 303 303 303 303 303 304 303 303 303 303 303 302
316 318 317 319 320 321 322 323 323 322 323 326 325 325 326 326 325 323 323 323 322 322 323 323 322 320 319 318 317 317 317 314 313 315 316 316 313 309 305 304 303 303 302 302 302 302 302 302 302 302 302 302 302 302
316 316 319 320 321 321 322 322 322 321 323 324 325 325 324 324 322 322 323 322 322 323 324 324 324 323 323 323 323 320 317 315 314 317 319 317 313 308 305 304 303 302 302 303 302 302 301 301 301 302 302 303 304 304
317 316 318 320 322 322 323 321 320 320 322 323 324 325 324 324 323 323 323 323 323 323 323 324 324 323 323 323 323 324 323 317 317 315 313 310 309 307 305 304 303 302 302 302 302 302 303 303 304 304 305 305 305 305
318 319 321 324 325 324 322 324 324 324 324 324 325 324 324 325 325 326 323 323 323 324 324 323 325 326 324 322 321 320 319 320 321 317 313 309 309 307 304 303 303 302 302 302 302 303 304 304 304 305 305 305 305 305
320 322 322 323 325 326 326 325 325 325 325 325 325 324 324 324 325 325 322 322 325 325 324 323 321 320 320 320 319 318 318 317 316 316 313 311 308 306 304 303 303 302 302 303 303 303 304 304 305 305 305 304 304 304
Wind_Speed
13 13 12 13 13 13 14 15 17 19 21 23 20 12 9 8 9 9 2 1 1 2 4 6 5 4 3 2 3 0 1 3 2 2 2 1 3 1 3 2 3 4 7 4 3 4 5 10 2 5 3 7 9 8
14 13 13 13 14 14 14 14 16 18 21 22 19 11 8 7 7 8 2 3 5 4 4 4 7 8 9 8 3 3 2 5 3 3 2 1 2 3 1 1 2 3 3 4 2 2 4 8 9 6 5 10 7 9
17 16 15 15 15 17 15 13 15 17 19 19 18 15 10 7 6 5 5 4 2 2 4 3 4 4 5 11 9 3 3 4 4 4 1 1 4 2 0 1 4 1 2 3 4 5 7 6 8 9 10 13 11 12
18 17 16 16 17 17 16 13 14 16 18 19 18 16 13 10 7 6 4 5 2 0 3 1 2 3 3 6 7 5 4 8 3 1 2 2 3 4 1 1 2 2 5 4 5 8 5 6 7 8 9 9 11 12
18 18 17 18 17 17 17 15 17 16 16 18 19 17 14 11 7 7 8 7 6 3 2 4 10 1 5 6 5 4 8 5 4 2 3 2 1 1 1 2 1 3 2 1 2 7 3 4 5 8 5 8 8 9
19 19 18 19 20 20 19 18 16 14 16 17 18 17 13 9 5 3 2 5 3 4 2 3 3 2 1 2 4 4 5 4 3 3 3 2 2 3 2 0 3 3 4 4 3 6 6 5 7 6 5 6 6 7
18 18 17 16 16 17 18 19 18 16 15 16 18 18 14 6 3 2 2 2 7 3 2 3 2 1 1 1 2 2 1 1 2 1 2 1 2 2 1 1 8 5 7 5 3 6 5 5 2 2 3 3 5 7
18 17 16 14 17 18 19 19 17 15 13 15 18 18 9 4 3 0 2 8 10 2 1 2 2 2 1 1 1 2 1 1 1 2 1 1 2 1 2 4 8 7 6 5 6 5 5 5 4 5 6 5 6 8
17 16 16 18 19 21 19 16 13 13 12 15 19 10 0 2 2 2 4 3 4 2 1 1 2 1 1 1 1 2 1 2 1 2 1 3 1 2 3 11 11 10 7 8 5 4 5 7 7 7 8 8 8 10
16 16 17 19 21 19 15 12 10 9 12 16 5 0 1 2 4 5 1 2 1 0 1 3 1 1 2 1 1 1 1 1 1 1 2 1 2 2 3 7 8 11 8 10 7 4 5 8 9 9 9 9 10 10
15 15 16 19 18 15 12 8 7 7 8 1 1 0 1 2 2 2 1 2 2 2 3 3 4 2 2 1 1 1 1 0 1 1 2 1 2 4 7 9 8 9 9 7 4 6 6 6 5 6 7 9 10 11
14 13 15 16 11 7 7 5 6 4 2 2 3 1 1 1 1 1 2 1 3 2 3 2 1 3 2 1 2 2 0 1 1 0 2 2 3 4 11 12 11 11 11 9 8 7 5 3 2 3 4 6 7 8
14 13 14 10 9 9 6 6 7 7 3 1 2 1 1 1 0 2 1 2 1 3 2 1 2 2 2 2 1 1 2 1 1 2 2 3 1 6 10 10 11 13 13 10 8 6 5 4 3 2 2 3 4 6
14 12 12 10 10 7 6 7 7 4 2 1 1 2 2 2 3 3 2 1 2 2 1 1 1 1 1 3 2 2 1 2 2 2 3 3 7 9 11 10 11 13 12 12 11 9 8 7 5 4 4 4 5 7
14 11 9 11 10 10 9 7 6 5 3 2 2 2 5 3 2 3 3 2 3 2 1 2 1 2 0 2 1 0 3 3 3 3 2 2 4 10 12 12 12 12 11 10 11 9 8 8 7 9 10 11 11 12
11 6 8 4 3 6 9 10 8 4 2 2 3 3 3 2 3 3 3 2 3 2 1 0 2 3 1 1 2 4 2 4 2 2 2 1 5 9 11 11 11 12 13 12 11 12 11 11 13 15 13 15 17 17
9 5 5 3 4 8 14 5 4 3 3 3 3 3 2 3 3 2 3 2 6 4 2 1 3 2 4 3 3 3 3 2 2 3 2 3 8 10 10 11 12 12 11 11 11 11 13 12 12 13 15 18 16 16
4 7 5 7 11 16 4 3 2 3 5 4 3 2 3 3 3 3 3 3 4 2 3 1 1 3 3 3 3 3 3 3 3 2 0 4 6 10 12 12 13 13 12 10 10 9 9 11 12 14 15 12 10 11
8 8 8 11 9 4 3 3 2 2 4 2 3 4 3 3 4 6 4 6 5 2 2 2 3 3 4 4 4 4 3 3 1 2 3 5 8 11 11 9 9 10 10 10 9 10 9 11 13 12 11 10 11 11
8 9 12 10 5 2 1 2 3 2 2 1 3 3 3 3 1 1 2 5 5 3 3 4 5 4 4 3 3 4 2 2 4 5 4 4 7 10 11 11 10 10 9 8 9 11 10 11 13 13 13 14 13 13
9 7 10 8 2 1 1 1 2 2 2 3 1 2 2 2 3 3 3 5 4 3 4 6 3 4 5 5 5 3 3 5 5 3 6 5 8 8 8 8 7 8 9 9 10 10 10 11 10 9 9 8 8 9
6 13 5 6 2 1 2 4 2 1 2 2 2 2 3 2 2 3 4 4 3 4 4 3 2 2 5 4 3 4 1 7 5 4 7 10 6 5 6 9 9 9 10 12 11 11 10 7 6 5 4 4 4 4
12 6 4 3 2 3 3 3 2 2 2 1 1 2 2 2 1 4 3 4 3 3 3 3 2 1 2 3 4 3 5 8 6 5 5 4 5 7 7 8 11 12 11 14 13 13 12 9 7 7 5 4 4 5
5 5 3 4 3 2 2 3 2 2 2 2 2 3 2 1 4 2 3 2 1 1 3 4 5 4 3 2 2 3 5 6 4 5 5 5 4 6 8 9 10 13 14 13 10 10 10 10 10 10 8 6 6 7
2 1 3 2 2 2 3 2 3 2 3 3 2 3 2 2 2 3 3 1 1 2 3 4 5 3 3 3 2 4 5 6 4 3 4 5 4 6 8 9 10 10 8 9 10 10 9 9 9 9 9 9 9 10
2 3 4 5 3 3 3 2 4 4 3 2 4 2 1 0 2 2 1 2 1 1 3 4 5 5 4 4 3 4 6 8 5 5 3 6 7 9 8 6 4 4 3 5 5 5 6 7 6 7 8 10 12 11
0 2 2 1 1 1 3 3 2 2 3 3 2 2 2 2 2 1 0 1 1 1 2 5 9 7 4 6 6 5 3 6 7 3 2 4 5 4 5 4 3 3 6 2 2 2 3 2 2 4 6 6 7 7
2 1 3 2 2 2 3 3 3 4 3 2 2 3 2 4 1 1 3 2 5 4 5 5 9 10 8 7 7 5 4 6 6 6 5 2 1 1 0 2 1 2 4 5 4 3 2 3 1 2 3 5 7 7
3 3 3 3 3 3 4 4 3 3 2 2 1 1 2 1 1 3 5 7 6 4 4 5 7 8 9 11 11 10 9 9 10 6 6 3 2 2 4 4 5 4 5 5 5 5 3 1 2 3 5 7 9 11
4 5 3 3 4 5 5 7 3 2 2 2 2 1 2 3 8 12 11 12 10 8 7 6 6 10 10 11 10 10 12 12 13 9 4 3 1 1 6 9 8 6 6 5 4 2 1 3 5 6 8 9 10 10
1 4 3 4 4 5 5 4 2 1 3 4 4 5 7 4 8 12 12 12 11 9 8 10 11 11 12 13 12 10 7 13 15 13 10 8 3 2 8 12 11 8 6 4 2 2 4 6 6 8 9 11 14 15
5 7 4 4 3 2 2 3 3 4 4 4 4 5 3 3 3 2 3 4 7 9 11 11 10 10 7 9 8 8 8 6 11 16 15 12 8 5 13 14 11 8 5 2 1 4 5 6 8 9 11 14 15 14
3 4 4 4 3 2 3 2 2 2 3 3 4 7 6 4 3 2 3 3 4 4 4 4 7 8 5 3 2 1 2 2 4 5 5 11 8 12 14 13 10 6 3 1 3 4 5 8 9 11 13 14 13 11
Wind_Direction
296 302 313 319 320 324 337 344 346 345 350 350 351 349 335 346 349 357 218 107 32 262 271 207 190 179 172 198 304 282 27 48 301 235 288 213 256 336 280 320 290 197 167 166 160 209 191 358 206 228 40 105 97 83
284 290 299 311 315 319 321 330 339 343 349 353 353 354 336 333 339 351 257 243 306 220 288 239 235 244 248 248 184 200 268 147 224 263 233 303 272 274 54 298 242 220 2 132 336 63 47 37 62 21 53 78 48 96
279 279 289 305 304 310 307 320 330 338 343 349 351 354 344 316 316 327 300 272 276 265 266 257 222 213 219 220 222 253 166 151 205 218 257 247 259 269 132 178 291 81 17 98 170 89 65 51 55 37 49 69 63 64
274 277 282 289 300 308 306 307 319 325 335 343 345 341 338 321 291 288 288 275 256 44 279 275 327 254 256 213 201 223 142 156 174 201 209 237 255 207 196 286 278 333 315 120 90 112 131 59 44 28 49 53 66 63
268 271 276 288 293 298 310 300 300 309 323 329 336 335 331 324 290 283 280 256 229 274 302 300 307 286 216 197 196 163 164 165 179 184 222 255 249 234 161 248 98 0 29 256 112 109 55 82 43 16 37 42 53 66
264 268 275 285 289 291 298 298 301 302 309 315 325 328 327 321 304 294 206 210 209 192 276 298 333 287 78 156 166 179 173 196 214 220 184 234 262 248 246 53 95 86 66 20 106 98 89 121 68 28 29 29 38 61
260 265 279 292 298 301 290 295 295 298 296 305 317 326 323 301 282 231 353 147 154 31 246 281 285 117 326 98 113 165 164 223 269 226 212 227 173 248 249 214 154 175 91 67 70 144 127 84 111 51 72 70 85 71
255 263 277 292 297 301 304 296 288 297 291 300 311 319 306 284 287 278 270 233 234 305 274 265 271 280 356 157 181 347 278 267 1 323 230 320 162 275 265 122 151 124 109 81 70 81 96 117 126 85 81 61 79 62
252 261 274 288 297 297 299 301 286 292 288 301 311 318 192 172 143 118 109 110 155 229 260 244 254 215 134 88 242 164 1 255 347 282 326 305 324 230 148 168 171 166 174 160 143 119 115 95 89 75 67 53 53 46
249 260 276 290 299 294 293 286 285 278 294 304 308 102 181 141 134 126 119 174 160 309 238 250 242 260 211 175 115 269 27 350 262 61 287 250 277 284 217 187 171 170 159 159 156 130 85 67 58 53 48 43 40 32
251 264 282 299 294 293 292 273 261 284 301 313 302 25 46 141 150 185 178 221 140 238 205 239 230 271 170 220 152 284 119 73 273 111 293 272 260 208 164 169 168 167 166 163 122 120 103 86 61 43 34 27 24 20
252 268 292 298 285 282 279 262 245 265 241 258 286 330 91 188 157 250 227 163 208 256 186 228 250 222 185 188 183 188 183 197 278 67 273 263 247 169 165 167 169 170 169 165 163 147 131 115 76 40 16 23 25 15
248 264 298 280 276 275 265 249 248 262 276 106 116 154 114 136 60 237 215 172 222 185 244 209 228 220 160 201 96 170 229 256 178 231 263 248 172 182 177 165 164 170 173 178 174 173 171 176 200 240 323 7 8 4
242 263 279 268 267 266 253 245 246 229 169 163 174 324 211 193 238 212 247 253 189 185 193 345 305 238 236 201 159 225 119 195 244 240 234 234 207 184 177 171 164 174 183 190 196 197 201 209 223 244 272 299 308 313
232 253 266 276 267 245 231 236 215 180 166 189 168 217 223 233 233 237 261 259 199 164 142 177 182 231 41 267 201 217 198 242 234 239 235 242 181 171 170 175 179 178 185 199 205 212 223 232 247 264 265 267 265 263
215 228 247 228 263 214 198 169 160 175 168 206 221 230 218 254 240 230 232 245 179 145 115 2 178 196 145 207 257 227 226 231 241 230 284 201 173 173 173 175 181 184 194 204 210 221 231 231 237 249 258 251 250 250
185 204 187 160 188 166 154 142 156 188 213 220 236 223 235 279 252 230 198 229 164 165 187 184 224 171 128 226 239 204 228 267 281 294 266 212 179 170 171 175 180 191 198 209 220 224 232 240 242 241 245 249 247 249
158 161 153 164 162 146 160 167 195 193 240 227 236 211 193 230 234 214 204 183 167 182 144 252 210 201 222 223 226 227 258 285 280 293 210 154 154 160 170 176 186 199 205 209 214 222 225 221 223 235 246 258 258 262
170 164 143 152 153 144 149 191 198 250 242 251 253 241 246 243 227 240 212 191 190 132 146 176 234 233 231 223 253 278 256 251 284 118 124 140 151 163 168 178 188 192 201 204 209 226 237 235 243 254 259 262 264 274
158 151 159 161 153 137 185 184 198 251 258 316 248 253 251 255 280 182 170 179 174 176 188 214 223 218 222 238 233 275 224 183 158 150 146 148 155 164 173 173 188 201 214 229 242 247 255 264 263 261 258 259 260 268
170 145 172 179 159 180 268 214 221 234 279 258 266 271 273 246 238 181 173 167 191 211 229 229 228 235 227 254 253 240 220 188 194 195 170 166 176 182 168 185 193 200 216 231 241 248 242 255 277 277 268 259 250 259
163 160 125 176 199 169 258 231 252 299 262 278 276 239 266 254 212 178 149 199 232 221 211 213 233 257 219 231 230 205 176 170 161 119 119 135 159 184 201 201 198 219 227 237 240 248 253 256 255 238 221 236 259 250
137 141 133 142 174 187 259 176 235 210 258 260 269 263 235 232 118 147 229 224 250 220 207 205 206 198 160 125 117 106 151 159 162 163 155 172 183 206 217 214 218 230 241 246 240 245 248 244 223 200 201 233 242 257
138 166 165 180 189 226 186 210 212 247 270 254 240 258 227 155 147 223 254 242 233 141 184 171 164 141 123 126 156 153 154 161 156 170 187 192 218 230 237 247 242 245 249 260 248 243 234 222 208 195 201 221 244 266
117 201 129 242 198 217 221 206 207 218 247 225 242 247 185 185 211 223 231 298 282 214 180 178 200 202 157 140 159 181 185 186 200 209 192 208 247 275 273 258 258 259 251 240 242 239 236 213 207 205 209 230 250 268
164 184 176 193 178 211 203 241 205 212 232 234 238 231 128 274 262 273 27 331 307 229 191 195 188 179 182 191 183 195 204 204 206 244 249 233 247 266 288 295 300 343 319 247 254 246 211 197 208 217 238 251 261 267
221 193 190 209 286 239 253 254 253 268 263 239 203 210 133 229 261 65 14 262 270 327 277 220 201 202 195 190 216 235 214 209 201 219 279 309 289 267 246 270 300 339 332 315 233 190 174 168 254 262 266 267 265 263
235 241 223 151 216 236 268 269 220 220 236 243 241 213 235 186 255 221 196 257 253 284 322 223 208 206 208 206 201 198 198 216 221 236 262 260 258 318 204 204 215 66 48 60 111 129 111 107 59 341 287 283 288 289
210 203 201 237 217 228 226 227 245 215 223 218 217 204 291 91 246 235 285 291 297 296 276 201 198 198 213 225 224 218 203 181 167 188 220 238 245 220 206 164 136 99 87 92 100 111 112 63 355 328 309 302 304 306
236 190 212 225 206 223 222 199 223 224 251 273 275 251 241 242 246 272 271 275 270 256 244 232 193 195 212 222 227 209 213 204 204 209 212 222 277 170 168 159 147 125 113 110 117 124 358 327 315 314 317 318 321 322
161 176 227 233 250 242 226 205 195 225 253 248 247 256 279 299 299 286 259 254 247 237 230 233 226 218 223 227 230 231 222 218 216 215 205 169 146 192 172 162 151 140 136 129 107 22 346 333 332 336 335 333 328 326
190 204 208 227 249 226 134 188 208 215 221 208 233 210 213 226 259 269 242 203 206 217 228 234 250 257 256 250 250 235 224 209 223 216 209 194 191 181 168 164 155 154 154 143 352 333 332 333 329 325 325 324 325 326
217 204 215 261 256 227 183 185 227 250 224 224 228 222 221 215 249 275 291 267 260 280 278 275 268 274 284 273 261 250 195 166 159 163 169 173 164 156 161 160 155 150 141 40 337 321 309 317 320 321 324 326 330 339